Time,TemperatureF,DewpointF,PressureIn,WindDirection,WindDirectionDegrees,WindSpeedMPH,WindSpeedGustMPH,Humidity,HourlyPrecipIn,Conditions,Clouds,dailyrainin,SolarRadiationWatts/m^2,SoftwareType,DateUTC
2013-05-05 00:12:00,42.0,42.0,-100.00,NNW,343,4.0,12.0,100,0.00,,,0.11,0.000000,,2013-05-05 05:12:00,
2013-05-05 00:21:00,42.0,42.0,-100.00,NNW,343,4.0,12.0,100,0.00,,,0.11,0.000000,,2013-05-05 05:21:00,
2013-05-05 00:32:00,42.0,42.0,-100.00,NNW,343,4.0,12.0,100,0.00,,,0.11,0.000000,,2013-05-05 05:32:00,
2013-05-05 00:42:00,42.0,42.0,-100.00,NNW,343,4.0,12.0,100,0.00,,,0.11,0.000000,,2013-05-05 05:42:00,
2013-05-05 01:12:00,42.0,41.0,-100.00,NNW,336,6.0,11.0,98,0.00,,,0.11,0.000000,,2013-05-05 06:12:00,
2013-05-05 01:21:00,42.0,41.0,-100.00,NNW,336,6.0,11.0,98,0.00,,,0.11,0.000000,,2013-05-05 06:21:00,
2013-05-05 01:32:00,42.0,41.0,-100.00,NNW,336,6.0,11.0,98,0.00,,,0.11,0.000000,,2013-05-05 06:32:00,
2013-05-05 01:42:00,42.0,41.0,-100.00,NNW,336,6.0,11.0,98,0.00,,,0.11,0.000000,,2013-05-05 06:42:00,
2013-05-05 02:11:00,42.0,42.0,-100.00,NNW,340,5.0,11.0,99,0.00,,,0.11,0.000000,,2013-05-05 07:11:00,
2013-05-05 02:21:00,42.0,42.0,-100.00,NNW,340,5.0,11.0,99,0.00,,,0.11,0.000000,,2013-05-05 07:21:00,
2013-05-05 02:32:00,42.0,42.0,-100.00,NNW,340,5.0,11.0,99,0.00,,,0.11,0.000000,,2013-05-05 07:32:00,
2013-05-05 02:42:00,42.0,42.0,-100.00,NNW,340,5.0,11.0,99,0.00,,,0.11,0.000000,,2013-05-05 07:42:00,
2013-05-05 03:11:00,42.0,41.0,-100.00,NNW,329,6.0,11.0,98,0.00,,,0.11,0.000000,,2013-05-05 08:11:00,
2013-05-05 03:21:00,42.0,41.0,-100.00,NNW,329,6.0,11.0,98,0.00,,,0.11,0.000000,,2013-05-05 08:21:00,
2013-05-05 03:31:00,42.0,41.0,-100.00,NNW,329,6.0,11.0,98,0.00,,,0.11,0.000000,,2013-05-05 08:31:00,
2013-05-05 03:42:00,42.0,41.0,-100.00,NNW,329,6.0,11.0,98,0.00,,,0.11,0.000000,,2013-05-05 08:42:00,
2013-05-05 04:11:00,42.0,42.0,-100.00,NNW,330,6.0,12.0,99,0.00,,,0.11,0.000000,,2013-05-05 09:11:00,
2013-05-05 04:21:00,42.0,42.0,-100.00,NNW,330,6.0,12.0,99,0.00,,,0.11,0.000000,,2013-05-05 09:21:00,
2013-05-05 04:33:00,42.0,42.0,-100.00,NNW,330,6.0,12.0,99,0.00,,,0.11,0.000000,,2013-05-05 09:33:00,
2013-05-05 04:42:00,42.0,42.0,-100.00,NNW,330,6.0,12.0,99,0.00,,,0.11,0.000000,,2013-05-05 09:42:00,
2013-05-05 05:12:00,42.0,41.0,-100.00,NNW,331,6.0,15.0,98,0.00,,,0.10,0.000000,,2013-05-05 10:12:00,
2013-05-05 05:22:00,42.0,41.0,-100.00,NNW,331,6.0,15.0,98,0.00,,,0.10,0.000000,,2013-05-05 10:22:00,
2013-05-05 05:32:00,42.0,41.0,-100.00,NNW,331,6.0,15.0,98,0.00,,,0.10,0.000000,,2013-05-05 10:32:00,
2013-05-05 05:42:00,42.0,41.0,-100.00,NNW,331,6.0,15.0,98,0.00,,,0.10,0.000000,,2013-05-05 10:42:00,
2013-05-05 06:12:00,42.0,42.0,-100.00,NNW,336,5.0,12.0,99,0.00,,,0.08,0.000000,,2013-05-05 11:12:00,
2013-05-05 06:22:00,42.0,42.0,-100.00,NNW,336,5.0,12.0,99,0.00,,,0.08,0.000000,,2013-05-05 11:22:00,
2013-05-05 06:32:00,42.0,42.0,-100.00,NNW,336,5.0,12.0,99,0.00,,,0.08,0.000000,,2013-05-05 11:32:00,
2013-05-05 06:42:00,42.0,42.0,-100.00,NNW,336,5.0,12.0,99,0.00,,,0.08,0.000000,,2013-05-05 11:42:00,
2013-05-05 07:11:00,41.0,41.0,-100.00,North,3,4.0,12.0,100,0.00,,,0.04,1.000000,,2013-05-05 12:11:00,
2013-05-05 07:21:00,41.0,41.0,-100.00,North,3,4.0,12.0,100,0.00,,,0.04,1.000000,,2013-05-05 12:21:00,
2013-05-05 07:32:00,41.0,41.0,-100.00,North,3,4.0,12.0,100,0.00,,,0.04,1.000000,,2013-05-05 12:32:00,
2013-05-05 07:42:00,41.0,41.0,-100.00,North,3,4.0,12.0,100,0.00,,,0.04,1.000000,,2013-05-05 12:42:00,
2013-05-05 08:11:00,41.0,41.0,-100.00,NNW,338,6.0,14.0,99,0.00,,,0.03,13.000000,,2013-05-05 13:11:00,
2013-05-05 08:21:00,41.0,41.0,-100.00,NNW,338,6.0,14.0,99,0.00,,,0.03,13.000000,,2013-05-05 13:21:00,
2013-05-05 08:32:00,41.0,41.0,-100.00,NNW,338,6.0,14.0,99,0.00,,,0.03,13.000000,,2013-05-05 13:32:00,
2013-05-05 08:42:00,41.0,41.0,-100.00,NNW,338,6.0,14.0,99,0.00,,,0.03,13.000000,,2013-05-05 13:42:00,
2013-05-05 09:11:00,42.0,41.0,-100.00,North,353,4.0,14.0,98,0.00,,,0.02,42.000000,,2013-05-05 14:11:00,
2013-05-05 09:21:00,42.0,41.0,-100.00,North,353,4.0,14.0,98,0.00,,,0.02,42.000000,,2013-05-05 14:21:00,
2013-05-05 09:32:00,42.0,41.0,-100.00,North,353,4.0,14.0,98,0.00,,,0.02,42.000000,,2013-05-05 14:32:00,
2013-05-05 09:42:00,42.0,41.0,-100.00,North,353,4.0,14.0,98,0.00,,,0.02,42.000000,,2013-05-05 14:42:00,
2013-05-05 10:11:00,43.0,42.0,-100.00,NNW,339,6.0,14.0,96,0.00,,,0.02,78.000000,,2013-05-05 15:11:00,
2013-05-05 10:21:00,43.0,42.0,-100.00,NNW,339,6.0,14.0,96,0.00,,,0.02,78.000000,,2013-05-05 15:21:00,
2013-05-05 10:33:00,43.0,42.0,-100.00,NNW,339,6.0,14.0,96,0.00,,,0.02,78.000000,,2013-05-05 15:33:00,
2013-05-05 10:43:00,43.0,42.0,-100.00,NNW,339,6.0,14.0,96,0.00,,,0.02,78.000000,,2013-05-05 15:43:00,
2013-05-05 11:12:00,44.0,43.0,-100.00,NNW,337,6.0,14.0,95,0.00,,,0.01,124.000000,,2013-05-05 16:12:00,
2013-05-05 11:23:00,44.0,43.0,-100.00,NNW,337,6.0,14.0,95,0.00,,,0.01,124.000000,,2013-05-05 16:23:00,
2013-05-05 11:32:00,44.0,43.0,-100.00,NNW,337,6.0,14.0,95,0.00,,,0.01,124.000000,,2013-05-05 16:32:00,
2013-05-05 11:42:00,44.0,43.0,-100.00,NNW,337,6.0,14.0,95,0.00,,,0.01,124.000000,,2013-05-05 16:42:00,
2013-05-05 12:12:00,47.0,45.0,-100.00,North,353,5.0,10.0,92,0.00,,,0.01,188.000000,,2013-05-05 17:12:00,
2013-05-05 12:23:00,47.0,45.0,-100.00,North,353,5.0,10.0,92,0.00,,,0.01,188.000000,,2013-05-05 17:23:00,
2013-05-05 12:32:00,47.0,45.0,-100.00,North,353,5.0,10.0,92,0.00,,,0.01,188.000000,,2013-05-05 17:32:00,
2013-05-05 12:42:00,47.0,45.0,-100.00,North,353,5.0,10.0,92,0.00,,,0.01,188.000000,,2013-05-05 17:42:00,
2013-05-05 13:12:00,49.0,46.0,-100.00,NNW,338,5.0,11.0,88,0.00,,,0.01,285.000000,,2013-05-05 18:12:00,
2013-05-05 13:21:00,49.0,46.0,-100.00,NNW,338,5.0,11.0,88,0.00,,,0.01,285.000000,,2013-05-05 18:21:00,
2013-05-05 13:32:00,49.0,46.0,-100.00,NNW,338,5.0,11.0,88,0.00,,,0.01,285.000000,,2013-05-05 18:32:00,
2013-05-05 13:42:00,49.0,46.0,-100.00,NNW,338,5.0,11.0,88,0.00,,,0.01,285.000000,,2013-05-05 18:42:00,
2013-05-05 14:11:00,50.0,46.0,-100.00,NNW,334,5.0,13.0,86,0.00,,,0.00,227.000000,,2013-05-05 19:11:00,
2013-05-05 14:21:00,50.0,46.0,-100.00,NNW,334,5.0,13.0,86,0.00,,,0.00,227.000000,,2013-05-05 19:21:00,
2013-05-05 14:32:00,50.0,46.0,-100.00,NNW,334,5.0,13.0,86,0.00,,,0.00,227.000000,,2013-05-05 19:32:00,
2013-05-05 14:42:00,50.0,46.0,-100.00,NNW,334,5.0,13.0,86,0.00,,,0.00,227.000000,,2013-05-05 19:42:00,
2013-05-05 15:11:00,53.0,48.0,-100.00,North,349,5.0,13.0,82,0.00,,,0.00,268.000000,,2013-05-05 20:11:00,
2013-05-05 15:21:00,53.0,48.0,-100.00,North,349,5.0,13.0,82,0.00,,,0.00,268.000000,,2013-05-05 20:21:00,
2013-05-05 15:31:00,53.0,48.0,-100.00,North,349,5.0,13.0,82,0.00,,,0.00,268.000000,,2013-05-05 20:31:00,
2013-05-05 15:41:00,53.0,48.0,-100.00,North,349,5.0,13.0,82,0.00,,,0.00,268.000000,,2013-05-05 20:41:00,
2013-05-05 16:11:00,54.0,48.0,-100.00,NNW,346,5.0,12.0,80,0.00,,,0.00,210.000000,,2013-05-05 21:11:00,
2013-05-05 16:21:00,54.0,48.0,-100.00,NNW,346,5.0,12.0,80,0.00,,,0.00,210.000000,,2013-05-05 21:21:00,
2013-05-05 16:33:00,54.0,48.0,-100.00,NNW,346,5.0,12.0,80,0.00,,,0.00,210.000000,,2013-05-05 21:33:00,
2013-05-05 16:42:00,54.0,48.0,-100.00,NNW,346,5.0,12.0,80,0.00,,,0.00,210.000000,,2013-05-05 21:42:00,
2013-05-05 17:12:00,55.0,48.0,-100.00,North,352,6.0,13.0,78,0.00,,,0.00,263.000000,,2013-05-05 22:12:00,
2013-05-05 17:22:00,55.0,48.0,-100.00,North,352,6.0,13.0,78,0.00,,,0.00,263.000000,,2013-05-05 22:22:00,
2013-05-05 17:33:00,55.0,48.0,-100.00,North,352,6.0,13.0,78,0.00,,,0.00,263.000000,,2013-05-05 22:33:00,
2013-05-05 17:42:00,55.0,48.0,-100.00,North,352,6.0,13.0,78,0.00,,,0.00,263.000000,,2013-05-05 22:42:00,
2013-05-05 18:11:00,54.0,48.0,-100.00,NNW,346,4.0,11.0,81,0.00,,,0.00,145.000000,,2013-05-05 23:11:00,
2013-05-05 18:21:00,54.0,48.0,-100.00,NNW,346,4.0,11.0,81,0.00,,,0.00,145.000000,,2013-05-05 23:21:00,
2013-05-05 18:32:00,54.0,48.0,-100.00,NNW,346,4.0,11.0,81,0.00,,,0.00,145.000000,,2013-05-05 23:32:00,
2013-05-05 18:42:00,54.0,48.0,-100.00,NNW,346,4.0,11.0,81,0.00,,,0.00,145.000000,,2013-05-05 23:42:00,
2013-05-05 19:11:00,54.0,49.0,-100.00,NNW,339,4.0,11.0,82,0.00,,,0.00,85.000000,,2013-05-06 00:11:00,
2013-05-05 19:21:00,54.0,49.0,-100.00,NNW,339,4.0,11.0,82,0.00,,,0.00,85.000000,,2013-05-06 00:21:00,
2013-05-05 19:32:00,54.0,49.0,-100.00,NNW,339,4.0,11.0,82,0.00,,,0.00,85.000000,,2013-05-06 00:32:00,
2013-05-05 19:41:00,54.0,49.0,-100.00,NNW,339,4.0,11.0,82,0.00,,,0.00,85.000000,,2013-05-06 00:41:00,
2013-05-05 20:11:00,54.0,49.0,-100.00,NNW,345,3.0,9.0,84,0.00,,,0.00,54.000000,,2013-05-06 01:11:00,
2013-05-05 20:21:00,54.0,49.0,-100.00,NNW,345,3.0,9.0,84,0.00,,,0.00,54.000000,,2013-05-06 01:21:00,
2013-05-05 20:31:00,54.0,49.0,-100.00,NNW,345,3.0,9.0,84,0.00,,,0.00,54.000000,,2013-05-06 01:31:00,
2013-05-05 20:41:00,54.0,49.0,-100.00,NNW,345,3.0,9.0,84,0.00,,,0.00,54.000000,,2013-05-06 01:41:00,
2013-05-05 21:12:00,49.0,48.0,-100.00,North,353,0.0,4.0,96,0.00,,,0.00,14.000000,,2013-05-06 02:12:00,
2013-05-05 21:21:00,49.0,48.0,-100.00,North,353,0.0,4.0,96,0.00,,,0.00,14.000000,,2013-05-06 02:21:00,
2013-05-05 21:32:00,49.0,48.0,-100.00,North,353,0.0,4.0,96,0.00,,,0.00,14.000000,,2013-05-06 02:32:00,
2013-05-05 21:42:00,49.0,48.0,-100.00,North,353,0.0,4.0,96,0.00,,,0.00,14.000000,,2013-05-06 02:42:00,
2013-05-05 22:11:00,46.0,46.0,-100.00,NW,319,0.0,2.0,100,0.00,,,0.00,0.000000,,2013-05-06 03:11:00,
2013-05-05 22:22:00,46.0,46.0,-100.00,NW,319,0.0,2.0,100,0.00,,,0.00,0.000000,,2013-05-06 03:22:00,
2013-05-05 22:33:00,46.0,46.0,-100.00,NW,319,0.0,2.0,100,0.00,,,0.00,0.000000,,2013-05-06 03:33:00,
2013-05-05 22:42:00,46.0,46.0,-100.00,NW,319,0.0,2.0,100,0.00,,,0.00,0.000000,,2013-05-06 03:42:00,
2013-05-05 23:12:00,49.0,48.0,-100.00,NNW,332,2.0,5.0,97,0.00,,,0.00,0.000000,,2013-05-06 04:12:00,
2013-05-05 23:23:00,49.0,48.0,-100.00,NNW,332,2.0,5.0,97,0.00,,,0.00,0.000000,,2013-05-06 04:23:00,
2013-05-05 23:32:00,49.0,48.0,-100.00,NNW,332,2.0,5.0,97,0.00,,,0.00,0.000000,,2013-05-06 04:32:00,
2013-05-05 23:42:00,49.0,48.0,-100.00,NNW,332,2.0,5.0,97,0.00,,,0.00,0.000000,,2013-05-06 04:42:00,